Time,TemperatureF,DewpointF,PressureIn,WindDirection,WindDirectionDegrees,WindSpeedMPH,WindSpeedGustMPH,Humidity,HourlyPrecipIn,Conditions,Clouds,dailyrainin,SoftwareType,DateUTC
2013-07-27 00:02:00,70.0,69.0,29.92,West,280,0.0,-999.0,96,-99.99,,,0.00,,2013-07-27 05:02:00,
2013-07-27 00:22:00,70.0,69.0,29.92,West,280,0.0,-999.0,96,-99.99,,,0.00,,2013-07-27 05:22:00,
2013-07-27 00:43:00,70.0,69.0,29.91,West,280,0.0,-999.0,96,-99.99,,,0.00,,2013-07-27 05:43:00,
2013-07-27 00:52:00,70.0,69.0,29.91,West,280,0.0,-999.0,96,-99.99,,,0.00,,2013-07-27 05:52:00,
2013-07-27 01:12:00,70.0,69.0,29.92,West,280,1.0,-999.0,96,-99.99,,,0.00,,2013-07-27 06:12:00,
2013-07-27 01:43:00,70.0,69.0,29.92,West,280,0.0,-999.0,97,-99.99,,,0.00,,2013-07-27 06:43:00,
2013-07-27 02:33:00,70.0,69.0,29.92,West,280,0.0,-999.0,98,-99.99,,,0.00,,2013-07-27 07:33:00,
2013-07-27 02:52:00,70.0,69.0,29.91,West,280,0.0,-999.0,98,-99.99,,,0.00,,2013-07-27 07:52:00,
2013-07-27 03:02:00,70.0,69.0,29.91,West,280,0.0,-999.0,98,-99.99,,,0.00,,2013-07-27 08:02:00,
2013-07-27 03:12:00,70.0,69.0,29.90,West,280,0.0,-999.0,98,-99.99,,,0.00,,2013-07-27 08:12:00,
2013-07-27 03:22:00,70.0,69.0,29.90,West,280,0.0,-999.0,98,-99.99,,,0.00,,2013-07-27 08:22:00,
2013-07-27 03:32:00,70.0,69.0,29.90,West,280,0.0,-999.0,98,-99.99,,,0.00,,2013-07-27 08:32:00,
2013-07-27 03:43:00,70.0,69.0,29.90,West,280,0.0,-999.0,98,-99.99,,,0.00,,2013-07-27 08:43:00,
2013-07-27 03:53:00,69.0,68.0,29.90,West,280,0.0,-999.0,98,-99.99,,,0.00,,2013-07-27 08:53:00,
2013-07-27 04:02:00,69.0,68.0,29.91,West,280,0.0,-999.0,98,-99.99,,,0.00,,2013-07-27 09:02:00,
2013-07-27 04:12:00,69.0,68.0,29.91,West,280,0.0,-999.0,98,-99.99,,,0.00,,2013-07-27 09:12:00,
2013-07-27 04:33:00,69.0,68.0,29.91,West,280,0.0,-999.0,98,-99.99,,,0.00,,2013-07-27 09:33:00,
2013-07-27 04:44:00,69.0,68.0,29.91,West,280,0.0,-999.0,98,-99.99,,,0.00,,2013-07-27 09:44:00,
2013-07-27 04:52:00,69.0,68.0,29.91,West,280,0.0,-999.0,98,-99.99,,,0.00,,2013-07-27 09:52:00,
2013-07-27 05:02:00,69.0,69.0,29.91,West,280,0.0,-999.0,99,-99.99,,,0.00,,2013-07-27 10:02:00,
2013-07-27 05:12:00,69.0,68.0,29.90,West,280,1.0,-999.0,98,-99.99,,,0.00,,2013-07-27 10:12:00,
2013-07-27 05:32:00,69.0,68.0,29.90,West,280,0.0,-999.0,98,-99.99,,,0.00,,2013-07-27 10:32:00,
2013-07-27 05:52:00,70.0,70.0,29.91,West,280,0.0,-999.0,99,-99.99,,,0.00,,2013-07-27 10:52:00,
2013-07-27 06:02:00,70.0,70.0,29.91,West,280,1.0,-999.0,99,-99.99,,,0.00,,2013-07-27 11:02:00,
2013-07-27 06:12:00,70.0,70.0,29.91,West,280,0.0,-999.0,99,-99.99,,,0.00,,2013-07-27 11:12:00,
2013-07-27 06:22:00,70.0,69.0,29.91,West,280,0.0,-999.0,98,-99.99,,,0.00,,2013-07-27 11:22:00,
2013-07-27 06:52:00,70.0,70.0,29.91,West,280,0.0,-999.0,99,-99.99,,,0.00,,2013-07-27 11:52:00,
2013-07-27 07:12:00,70.0,70.0,29.91,West,280,0.0,-999.0,99,-99.99,,,0.00,,2013-07-27 12:12:00,
2013-07-27 07:33:00,71.0,71.0,29.91,West,280,1.0,-999.0,99,-99.99,,,0.00,,2013-07-27 12:33:00,
2013-07-27 08:02:00,72.0,71.0,29.91,West,276,1.0,-999.0,98,-99.99,,,0.00,,2013-07-27 13:02:00,
2013-07-27 08:32:00,72.0,71.0,29.91,SSE,156,1.0,-999.0,96,-99.99,,,0.00,,2013-07-27 13:32:00,
2013-07-27 08:44:00,73.0,71.0,29.91,South,191,1.0,-999.0,95,-99.99,,,0.00,,2013-07-27 13:44:00,
2013-07-27 09:02:00,74.0,72.0,29.92,South,187,0.0,-999.0,94,-99.99,,,0.00,,2013-07-27 14:02:00,
2013-07-27 09:44:00,79.0,74.0,29.89,South,182,3.0,-999.0,84,-99.99,,,0.00,,2013-07-27 14:44:00,
2013-07-27 09:54:00,79.0,74.0,29.89,South,182,3.0,-999.0,84,-99.99,,,0.00,,2013-07-27 14:54:00,
2013-07-27 10:02:00,80.0,73.0,29.89,WSW,242,4.0,-999.0,79,-99.99,,,0.00,,2013-07-27 15:02:00,
2013-07-27 10:22:00,81.0,73.0,29.88,SSW,213,4.0,-999.0,76,-99.99,,,0.00,,2013-07-27 15:22:00,
2013-07-27 10:33:00,82.0,73.0,29.87,WSW,253,3.0,-999.0,74,-99.99,,,0.00,,2013-07-27 15:33:00,
2013-07-27 10:44:00,82.0,74.0,29.87,WNW,301,5.0,-999.0,76,-99.99,,,0.00,,2013-07-27 15:44:00,
2013-07-27 10:53:00,82.0,72.0,29.87,WSW,247,6.0,-999.0,73,-99.99,,,0.00,,2013-07-27 15:53:00,
2013-07-27 11:02:00,81.0,72.0,29.87,West,274,5.0,-999.0,73,-99.99,,,0.00,,2013-07-27 16:02:00,
2013-07-27 11:12:00,82.0,72.0,29.86,SW,216,5.0,-999.0,72,-99.99,,,0.00,,2013-07-27 16:12:00,
2013-07-27 11:23:00,82.0,72.0,29.86,SW,216,5.0,-999.0,72,-99.99,,,0.00,,2013-07-27 16:23:00,
2013-07-27 11:33:00,83.0,72.0,29.86,SW,233,4.0,-999.0,70,-99.99,,,0.00,,2013-07-27 16:33:00,
2013-07-27 11:43:00,84.0,74.0,29.86,WNW,284,5.0,-999.0,71,-99.99,,,0.00,,2013-07-27 16:43:00,
2013-07-27 11:53:00,83.0,72.0,29.86,NW,315,6.0,-999.0,70,-99.99,,,0.00,,2013-07-27 16:53:00,
2013-07-27 12:02:00,82.0,72.0,29.85,WNW,285,6.0,-999.0,71,-99.99,,,0.00,,2013-07-27 17:02:00,
2013-07-27 12:12:00,82.0,72.0,29.85,West,270,5.0,-999.0,71,-99.99,,,0.00,,2013-07-27 17:12:00,
2013-07-27 12:32:00,85.0,73.0,29.85,WNW,302,5.0,-999.0,67,-99.99,,,0.00,,2013-07-27 17:32:00,
2013-07-27 12:43:00,84.0,72.0,29.85,WNW,300,5.0,-999.0,67,-99.99,,,0.00,,2013-07-27 17:43:00,
2013-07-27 12:53:00,84.0,72.0,29.85,West,276,4.0,-999.0,67,-99.99,,,0.00,,2013-07-27 17:53:00,
2013-07-27 13:03:00,84.0,71.0,29.85,WNW,283,5.0,-999.0,66,-99.99,,,0.00,,2013-07-27 18:03:00,
2013-07-27 13:22:00,84.0,74.0,29.85,WSW,237,5.0,-999.0,72,-99.99,,,0.00,,2013-07-27 18:22:00,
2013-07-27 13:33:00,85.0,70.0,29.84,SSW,193,4.0,-999.0,62,-99.99,,,0.00,,2013-07-27 18:33:00,
2013-07-27 13:43:00,85.0,70.0,29.84,WNW,297,4.0,-999.0,62,-99.99,,,0.00,,2013-07-27 18:43:00,
2013-07-27 13:53:00,86.0,70.0,29.84,West,264,5.0,-999.0,59,-99.99,,,0.00,,2013-07-27 18:53:00,
2013-07-27 14:02:00,86.0,73.0,29.83,SW,224,3.0,-999.0,66,-99.99,,,0.00,,2013-07-27 19:02:00,
2013-07-27 14:12:00,86.0,70.0,29.83,WSW,245,5.0,-999.0,60,-99.99,,,0.00,,2013-07-27 19:12:00,
2013-07-27 14:23:00,86.0,72.0,29.83,WSW,244,5.0,-999.0,63,-99.99,,,0.00,,2013-07-27 19:23:00,
2013-07-27 14:32:00,86.0,72.0,29.82,West,262,5.0,-999.0,63,-99.99,,,0.00,,2013-07-27 19:32:00,
2013-07-27 14:43:00,86.0,72.0,29.82,WSW,242,4.0,-999.0,63,-99.99,,,0.00,,2013-07-27 19:43:00,
2013-07-27 14:53:00,86.0,72.0,29.82,WSW,251,5.0,-999.0,63,-99.99,,,0.00,,2013-07-27 19:53:00,
2013-07-27 15:02:00,85.0,72.0,29.81,West,263,5.0,-999.0,65,-99.99,,,0.00,,2013-07-27 20:02:00,
2013-07-27 15:12:00,85.0,73.0,29.81,SW,224,4.0,-999.0,68,-99.99,,,0.00,,2013-07-27 20:12:00,
2013-07-27 15:23:00,85.0,71.0,29.81,West,260,6.0,-999.0,64,-99.99,,,0.00,,2013-07-27 20:23:00,
2013-07-27 15:32:00,86.0,70.0,29.81,WNW,293,6.0,-999.0,59,-99.99,,,0.00,,2013-07-27 20:32:00,
2013-07-27 15:43:00,86.0,71.0,29.80,WNW,301,5.0,-999.0,62,-99.99,,,0.00,,2013-07-27 20:43:00,
2013-07-27 15:52:00,86.0,69.0,29.80,NW,310,5.0,-999.0,57,-99.99,,,0.00,,2013-07-27 20:52:00,
2013-07-27 16:03:00,86.0,67.0,29.80,WNW,296,6.0,-999.0,53,-99.99,,,0.00,,2013-07-27 21:03:00,
2013-07-27 16:12:00,86.0,66.0,29.80,SW,235,6.0,-999.0,52,-99.99,,,0.00,,2013-07-27 21:12:00,
2013-07-27 16:23:00,86.0,69.0,29.80,SW,225,4.0,-999.0,57,-99.99,,,0.00,,2013-07-27 21:23:00,
2013-07-27 16:33:00,86.0,70.0,29.80,WSW,258,4.0,-999.0,59,-99.99,,,0.00,,2013-07-27 21:33:00,
2013-07-27 16:43:00,86.0,71.0,29.80,WSW,256,4.0,-999.0,61,-99.99,,,0.00,,2013-07-27 21:43:00,
2013-07-27 16:52:00,85.0,68.0,29.80,West,261,3.0,-999.0,57,-99.99,,,0.00,,2013-07-27 21:52:00,
2013-07-27 17:02:00,85.0,69.0,29.80,WNW,295,3.0,-999.0,58,-99.99,,,0.00,,2013-07-27 22:02:00,
2013-07-27 17:12:00,84.0,70.0,29.80,West,265,4.0,-999.0,64,-99.99,,,0.00,,2013-07-27 22:12:00,
2013-07-27 17:22:00,83.0,71.0,29.80,WNW,287,5.0,-999.0,68,-99.99,,,0.00,,2013-07-27 22:22:00,
2013-07-27 17:33:00,83.0,72.0,29.80,SW,226,5.0,-999.0,69,-99.99,,,0.00,,2013-07-27 22:33:00,
2013-07-27 17:43:00,82.0,71.0,29.80,WSW,253,4.0,-999.0,69,-99.99,,,0.00,,2013-07-27 22:43:00,
2013-07-27 18:02:00,82.0,72.0,29.80,WSW,249,3.0,-999.0,71,-99.99,,,0.00,,2013-07-27 23:02:00,
2013-07-27 18:12:00,83.0,72.0,29.80,WSW,251,4.0,-999.0,70,-99.99,,,0.00,,2013-07-27 23:12:00,
2013-07-27 18:22:00,82.0,71.0,29.81,WSW,250,4.0,-999.0,70,-99.99,,,0.00,,2013-07-27 23:22:00,
2013-07-27 18:32:00,81.0,70.0,29.81,WNW,289,3.0,-999.0,70,-99.99,,,0.00,,2013-07-27 23:32:00,
2013-07-27 18:44:00,81.0,69.0,29.81,WSW,256,3.0,-999.0,66,-99.99,,,0.00,,2013-07-27 23:44:00,
2013-07-27 18:52:00,82.0,69.0,29.81,West,272,2.0,-999.0,66,-99.99,,,0.00,,2013-07-27 23:52:00,
2013-07-27 19:02:00,81.0,69.0,29.82,WSW,240,3.0,-999.0,66,-99.99,,,0.00,,2013-07-28 00:02:00,
2013-07-27 19:12:00,81.0,69.0,29.82,WSW,247,1.0,-999.0,68,-99.99,,,0.00,,2013-07-28 00:12:00,
2013-07-27 19:23:00,81.0,69.0,29.82,WSW,247,1.0,-999.0,68,-99.99,,,0.00,,2013-07-28 00:23:00,
2013-07-27 19:32:00,81.0,70.0,29.82,WSW,247,1.0,-999.0,69,-99.99,,,0.00,,2013-07-28 00:32:00,
2013-07-27 19:53:00,79.0,71.0,29.83,WSW,246,1.0,-999.0,76,-99.99,,,0.00,,2013-07-28 00:53:00,
2013-07-27 20:02:00,78.0,70.0,29.83,WSW,246,1.0,-999.0,77,-99.99,,,0.00,,2013-07-28 01:02:00,
2013-07-27 20:12:00,77.0,70.0,29.83,WSW,246,1.0,-999.0,80,-99.99,,,0.00,,2013-07-28 01:12:00,
2013-07-27 20:22:00,75.0,70.0,29.84,WSW,246,1.0,-999.0,84,-99.99,,,0.00,,2013-07-28 01:22:00,
2013-07-27 20:32:00,75.0,70.0,29.84,WSW,244,1.0,-999.0,85,-99.99,,,0.00,,2013-07-28 01:32:00,
2013-07-27 20:43:00,74.0,70.0,29.85,SW,233,0.0,-999.0,86,-99.99,,,0.00,,2013-07-28 01:43:00,
2013-07-27 20:53:00,74.0,70.0,29.85,SW,233,0.0,-999.0,87,-99.99,,,0.00,,2013-07-28 01:53:00,
2013-07-27 21:03:00,73.0,69.0,29.86,SW,233,0.0,-999.0,88,-99.99,,,0.00,,2013-07-28 02:03:00,
2013-07-27 21:12:00,73.0,70.0,29.86,SW,233,0.0,-999.0,89,-99.99,,,0.00,,2013-07-28 02:12:00,
2013-07-27 21:22:00,73.0,70.0,29.86,SW,233,0.0,-999.0,90,-99.99,,,0.00,,2013-07-28 02:22:00,
2013-07-27 21:32:00,72.0,70.0,29.87,SW,233,0.0,-999.0,92,-99.99,,,0.00,,2013-07-28 02:32:00,
2013-07-27 21:42:00,72.0,70.0,29.87,SW,233,0.0,-999.0,92,-99.99,,,0.00,,2013-07-28 02:42:00,
2013-07-27 21:53:00,72.0,70.0,29.88,SW,233,0.0,-999.0,92,-99.99,,,0.00,,2013-07-28 02:53:00,
2013-07-27 22:03:00,72.0,69.0,29.88,SW,233,0.0,-999.0,91,-99.99,,,0.00,,2013-07-28 03:03:00,
2013-07-27 22:12:00,72.0,69.0,29.88,SW,233,0.0,-999.0,91,-99.99,,,0.00,,2013-07-28 03:12:00,
2013-07-27 22:22:00,72.0,70.0,29.88,SW,233,1.0,-999.0,92,-99.99,,,0.00,,2013-07-28 03:22:00,
2013-07-27 22:32:00,71.0,69.0,29.88,SW,233,0.0,-999.0,93,-99.99,,,0.00,,2013-07-28 03:32:00,
2013-07-27 22:42:00,71.0,69.0,29.88,SW,233,0.0,-999.0,94,-99.99,,,0.00,,2013-07-28 03:42:00,
2013-07-27 22:53:00,71.0,69.0,29.88,SW,233,0.0,-999.0,94,-99.99,,,0.00,,2013-07-28 03:53:00,
2013-07-27 23:02:00,70.0,68.0,29.89,SW,233,0.0,-999.0,95,-99.99,,,0.00,,2013-07-28 04:02:00,
2013-07-27 23:12:00,70.0,68.0,29.89,SW,233,0.0,-999.0,95,-99.99,,,0.00,,2013-07-28 04:12:00,
2013-07-27 23:22:00,70.0,69.0,29.89,SW,233,0.0,-999.0,96,-99.99,,,0.00,,2013-07-28 04:22:00,
2013-07-27 23:32:00,71.0,70.0,29.89,SW,233,1.0,-999.0,96,-99.99,,,0.00,,2013-07-28 04:32:00,
2013-07-27 23:43:00,70.0,69.0,29.89,SW,233,0.0,-999.0,96,-99.99,,,0.00,,2013-07-28 04:43:00,
2013-07-27 23:53:00,70.0,68.0,29.89,SW,233,0.0,-999.0,95,-99.99,,,0.00,,2013-07-28 04:53:00,